Regional Weather Roundup
Issued by NWS

Home | Current Version | Previous Version | Text Only | Print | Product List | Glossary Off
Versions: 1 2 3 4 5 6 7 8 9 10 11 12 13 14 15 16 17 18 19 20 21 22 23 24 25 26 27 28 29 30 31 32 33 34 35 36 37 38 39 40 41 42 43 44 45 46 47 48 49 50

638
ASUS43 KTOP 260859
RWRKS

WEATHER ROUNDUP FOR KANSAS
NATIONAL WEATHER SERVICE GOODLAND KS
400 AM CDT WED JUL 26 2017

NOTE:  "FAIR" INDICATES FEW OR NO CLOUDS BELOW 12,000 FEET WITH NO
SIGNIFICANT WEATHER AND/OR OBSTRUCTIONS TO VISIBILITY.

KSZ001>006-013>018-027>032-041>047-261000-
NORTHWEST KANSAS

CITY           SKY/WX    TMP DP  RH WIND       PRES   REMARKS
GOODLAND       CLOUDY    72  62  71 W8        29.98R
HAYS           CLOUDY    84  69  60 S14G22    29.92S
HILL CITY      CLOUDY    82  67  60 S12       29.89F
RUSSELL        CLOUDY    83  67  58 S18G28    29.91S
$$

KSZ061>065-074>080-084>089-261000-
SOUTHWEST KANSAS

CITY           SKY/WX    TMP DP  RH WIND       PRES   REMARKS
DODGE CITY     MOCLDY    81  67  62 S15G25    29.97S
ELKHART          N/A     72  51  47 S12         N/A
GARDEN CITY    CLOUDY    78  64  61 S16       29.95F
GREAT BEND     MOCLDY    82  69  64 S21G26    29.93F
LIBERAL        CLOUDY    80  63  55 S17       29.99F
$$

KSZ066>073-081>083-090>101-261000-
SOUTHEAST KANSAS

CITY           SKY/WX    TMP DP  RH WIND       PRES   REMARKS
CHANUTE        CLEAR     79  73  82 S8        30.03S
COFFEYVILLE    CLEAR     78  74  87 S6        30.03S
HUTCHINSON     CLOUDY    83  70  64 S18G26    29.96S
MEDICINE LODGE   N/A     82  68  62 S8        29.97S
NEWTON         PTCLDY    81  72  74 S18       29.99S
PARSONS        CLEAR     78  73  84 S6        30.03S
WICHITA INTL   PTCLDY    81  73  76 S15       29.98S
WICHITA JABRA  MOCLDY    81  72  74 S12       29.99S
WINFIELD       PTCLDY    80  72  76 S10       30.01S
$$

KSZ007>012-019>026-033>040-048>060-102>105-261000-
NORTHEAST KANSAS

CITY           SKY/WX    TMP DP  RH WIND       PRES   REMARKS
CONCORDIA      MOCLDY    81  70  69 S17G25    29.90F
EMPORIA        CLOUDY    78  71  79 S14       29.99F
LAWRENCE       CLOUDY    77  73  87 SE6       29.99S
MANHATTAN      PTCLDY    84  72  67 S10G20    29.94F
OLATHE IND     CLOUDY    79  72  79 S8        30.01F
OLATHE EXE     CLOUDY    75  74  96 S6        30.01F
SALINA         PTCLDY    85  71  63 S18       29.93S
TOPEKA BILLARD PTCLDY    81  73  76 S9        29.97F
TOPEKA FORBES  CLOUDY    80  73  79 S9        29.99S
$$




USA.gov is the U.S. government's official web portal to all federal, state and local government web resources and services.